Year,Month,Day,Hour,Minute,Value (Times are PST for temperature in C)
2009,08,20,00,00,17.90
2009,08,20,00,01,17.90
2009,08,20,00,02,17.90
2009,08,20,00,03,17.90
2009,08,20,00,04,17.90
2009,08,20,00,05,17.90
2009,08,20,00,06,17.90
2009,08,20,00,07,17.90
2009,08,20,00,08,17.90
2009,08,20,00,09,17.90
2009,08,20,00,10,17.80
2009,08,20,00,11,17.80
2009,08,20,00,12,17.80
2009,08,20,00,13,17.80
2009,08,20,00,14,17.80
2009,08,20,00,15,17.80
2009,08,20,00,16,17.80
2009,08,20,00,17,17.80
2009,08,20,00,18,17.80
2009,08,20,00,19,17.80
2009,08,20,00,20,17.80
2009,08,20,00,21,17.80
2009,08,20,00,22,17.70
2009,08,20,00,23,17.70
2009,08,20,00,24,17.70
2009,08,20,00,25,17.70
2009,08,20,00,26,17.70
2009,08,20,00,27,17.70
2009,08,20,00,28,17.70
2009,08,20,00,29,17.70
2009,08,20,00,30,17.70
2009,08,20,00,31,17.70
2009,08,20,00,32,17.70
2009,08,20,00,33,17.70
2009,08,20,00,34,17.70
2009,08,20,00,35,17.70
2009,08,20,00,36,17.60
2009,08,20,00,37,17.60
2009,08,20,00,38,17.60
2009,08,20,00,39,17.60
2009,08,20,00,40,17.60
2009,08,20,00,41,17.60
2009,08,20,00,42,17.60
2009,08,20,00,43,17.60
2009,08,20,00,44,17.60
2009,08,20,00,45,17.60
2009,08,20,00,46,17.60
2009,08,20,00,47,17.60
2009,08,20,00,48,17.60
2009,08,20,00,49,17.60
2009,08,20,00,50,17.60
2009,08,20,00,51,17.60
2009,08,20,00,52,17.60
2009,08,20,00,53,17.60
2009,08,20,00,54,17.60
2009,08,20,00,55,17.50
2009,08,20,00,56,17.50
2009,08,20,00,57,17.50
2009,08,20,00,58,17.40
2009,08,20,00,59,17.40
2009,08,20,01,00,17.40
2009,08,20,01,01,17.30
2009,08,20,01,02,17.30
2009,08,20,01,03,17.30
2009,08,20,01,04,17.20
2009,08,20,01,05,17.20
2009,08,20,01,06,17.20
2009,08,20,01,07,17.10
2009,08,20,01,08,17.10
2009,08,20,01,09,17.10
2009,08,20,01,10,17.00
2009,08,20,01,11,17.00
2009,08,20,01,12,17.00
2009,08,20,01,13,17.00
2009,08,20,01,14,17.00
2009,08,20,01,15,17.00
2009,08,20,01,16,17.00
2009,08,20,01,17,16.90
2009,08,20,01,18,16.90
2009,08,20,01,19,17.00
2009,08,20,01,20,17.00
2009,08,20,01,21,17.00
2009,08,20,01,22,17.00
2009,08,20,01,23,17.00
2009,08,20,01,24,17.00
2009,08,20,01,25,17.00
2009,08,20,01,26,17.00
2009,08,20,01,27,17.00
2009,08,20,01,28,17.00
2009,08,20,01,29,16.90
2009,08,20,01,30,16.90
2009,08,20,01,31,16.90
2009,08,20,01,32,16.90
2009,08,20,01,33,16.90
2009,08,20,01,34,16.90
2009,08,20,01,35,16.90
2009,08,20,01,36,16.90
2009,08,20,01,37,16.90
2009,08,20,01,38,16.90
2009,08,20,01,39,16.90
2009,08,20,01,40,16.90
2009,08,20,01,41,16.90
2009,08,20,01,42,16.90
2009,08,20,01,43,17.00
2009,08,20,01,44,17.00
2009,08,20,01,45,16.90
2009,08,20,01,46,16.90
2009,08,20,01,47,16.90
2009,08,20,01,48,16.90
2009,08,20,01,49,16.90
2009,08,20,01,50,16.90
2009,08,20,01,51,17.00
2009,08,20,01,52,17.00
2009,08,20,01,53,17.10
2009,08,20,01,54,17.20
2009,08,20,01,55,17.30
2009,08,20,01,56,17.30
2009,08,20,01,57,17.30
2009,08,20,01,58,17.30
2009,08,20,01,59,17.30
2009,08,20,02,00,17.30
2009,08,20,02,01,17.30
2009,08,20,02,02,17.30
2009,08,20,02,03,17.30
2009,08,20,02,04,17.30
2009,08,20,02,05,17.30
2009,08,20,02,06,17.20
2009,08,20,02,07,17.20
2009,08,20,02,08,17.20
2009,08,20,02,09,17.20
2009,08,20,02,10,17.10
2009,08,20,02,11,17.10
2009,08,20,02,12,17.10
2009,08,20,02,13,17.10
2009,08,20,02,14,17.10
2009,08,20,02,15,17.10
2009,08,20,02,16,17.10
2009,08,20,02,17,17.00
2009,08,20,02,18,17.00
2009,08,20,02,19,17.00
2009,08,20,02,20,17.00
2009,08,20,02,21,17.00
2009,08,20,02,22,17.00
2009,08,20,02,23,17.00
2009,08,20,02,24,17.00
2009,08,20,02,25,17.00
2009,08,20,02,26,17.00
2009,08,20,02,27,17.00
2009,08,20,02,28,16.90
2009,08,20,02,29,16.90
2009,08,20,02,30,16.90
2009,08,20,02,31,16.90
2009,08,20,02,32,16.90
2009,08,20,02,33,16.80
2009,08,20,02,34,16.80
2009,08,20,02,35,16.80
2009,08,20,02,36,16.80
2009,08,20,02,37,16.80
2009,08,20,02,38,16.80
2009,08,20,02,39,16.80
2009,08,20,02,40,16.80
2009,08,20,02,41,16.70
2009,08,20,02,42,16.70
2009,08,20,02,43,16.70
2009,08,20,02,44,16.60
2009,08,20,02,45,16.50
2009,08,20,02,46,16.40
2009,08,20,02,47,16.40
2009,08,20,02,48,16.40
2009,08,20,02,49,16.30
2009,08,20,02,50,16.30
2009,08,20,02,51,16.30
2009,08,20,02,52,16.30
2009,08,20,02,53,16.20
2009,08,20,02,54,16.20
2009,08,20,02,55,16.20
2009,08,20,02,56,16.30
2009,08,20,02,57,16.30
2009,08,20,02,58,16.30
2009,08,20,02,59,16.30
2009,08,20,03,00,16.30
2009,08,20,03,01,16.30
2009,08,20,03,02,16.20
2009,08,20,03,03,16.20
2009,08,20,03,04,16.20
2009,08,20,03,05,16.20
2009,08,20,03,06,16.20
2009,08,20,03,07,16.20
2009,08,20,03,08,16.20
2009,08,20,03,09,16.30
2009,08,20,03,10,16.30
2009,08,20,03,11,16.30
2009,08,20,03,12,16.30
2009,08,20,03,13,16.20
2009,08,20,03,14,16.20
2009,08,20,03,15,16.20
2009,08,20,03,16,16.20
2009,08,20,03,17,16.20
2009,08,20,03,18,16.20
2009,08,20,03,19,16.20
2009,08,20,03,20,16.20
2009,08,20,03,21,16.20
2009,08,20,03,22,16.20
2009,08,20,03,23,16.20
2009,08,20,03,24,16.20
2009,08,20,03,25,16.20
2009,08,20,03,26,16.20
2009,08,20,03,27,16.20
2009,08,20,03,28,16.20
2009,08,20,03,29,16.20
2009,08,20,03,30,16.20
2009,08,20,03,31,16.20
2009,08,20,03,32,16.20
2009,08,20,03,33,16.20
2009,08,20,03,34,16.20
2009,08,20,03,35,16.20
2009,08,20,03,36,16.20
2009,08,20,03,37,16.20
2009,08,20,03,38,16.20
2009,08,20,03,39,16.20
2009,08,20,03,40,16.20
2009,08,20,03,41,16.20
2009,08,20,03,42,16.20
2009,08,20,03,43,16.20
2009,08,20,03,44,16.20
2009,08,20,03,45,16.10
2009,08,20,03,46,16.10
2009,08,20,03,47,16.10
2009,08,20,03,48,16.10
2009,08,20,03,49,16.10
2009,08,20,03,50,16.10
2009,08,20,03,51,16.10
2009,08,20,03,52,16.10
2009,08,20,03,53,16.10
2009,08,20,03,54,16.10
2009,08,20,03,55,16.10
2009,08,20,03,56,16.20
2009,08,20,03,57,16.20
2009,08,20,03,58,16.20
2009,08,20,03,59,16.20
2009,08,20,04,00,16.10
2009,08,20,04,01,16.10
2009,08,20,04,02,16.10
2009,08,20,04,03,16.10
2009,08,20,04,04,16.10
2009,08,20,04,05,16.10
2009,08,20,04,06,16.10
2009,08,20,04,07,16.10
2009,08,20,04,08,16.10
2009,08,20,04,09,16.10
2009,08,20,04,10,16.10
2009,08,20,04,11,16.10
2009,08,20,04,12,16.00
2009,08,20,04,13,16.00
2009,08,20,04,14,16.00
2009,08,20,04,15,16.00
2009,08,20,04,16,16.00
2009,08,20,04,17,16.10
2009,08,20,04,18,16.10
2009,08,20,04,19,16.10
2009,08,20,04,20,16.10
2009,08,20,04,21,16.10
2009,08,20,04,22,16.10
2009,08,20,04,23,16.10
2009,08,20,04,24,16.10
2009,08,20,04,25,16.10
2009,08,20,04,26,16.10
2009,08,20,04,27,16.00
2009,08,20,04,28,16.00
2009,08,20,04,29,16.00
2009,08,20,04,30,16.00
2009,08,20,04,31,16.00
2009,08,20,04,32,15.90
2009,08,20,04,33,15.90
2009,08,20,04,34,15.90
2009,08,20,04,35,15.90
2009,08,20,04,36,15.90
2009,08,20,04,37,15.90
2009,08,20,04,38,15.90
2009,08,20,04,39,15.80
2009,08,20,04,40,15.80
2009,08,20,04,41,15.80
2009,08,20,04,42,15.80
2009,08,20,04,43,15.80
2009,08,20,04,44,15.80
2009,08,20,04,45,15.80
2009,08,20,04,46,15.80
2009,08,20,04,47,15.70
2009,08,20,04,48,15.70
2009,08,20,04,49,15.70
2009,08,20,04,50,15.70
2009,08,20,04,51,15.60
2009,08,20,04,52,15.50
2009,08,20,04,53,15.50
2009,08,20,04,54,15.40
2009,08,20,04,55,15.40
2009,08,20,04,56,15.30
2009,08,20,04,57,15.30
2009,08,20,04,58,15.30
2009,08,20,04,59,15.30
2009,08,20,05,00,15.30
2009,08,20,05,01,15.30
2009,08,20,05,02,15.30
2009,08,20,05,03,15.30
2009,08,20,05,04,15.30
2009,08,20,05,05,15.30
2009,08,20,05,06,15.40
2009,08,20,05,07,15.40
2009,08,20,05,08,15.40
2009,08,20,05,09,15.40
2009,08,20,05,10,15.40
2009,08,20,05,11,15.40
2009,08,20,05,12,15.50
2009,08,20,05,13,15.50
2009,08,20,05,14,15.50
2009,08,20,05,15,15.50
2009,08,20,05,16,15.60
2009,08,20,05,17,15.60
2009,08,20,05,18,15.60
2009,08,20,05,19,15.60
2009,08,20,05,20,15.50
2009,08,20,05,21,15.50
2009,08,20,05,22,15.50
2009,08,20,05,23,15.50
2009,08,20,05,24,15.50
2009,08,20,05,25,15.40
2009,08,20,05,26,15.40
2009,08,20,05,27,15.40
2009,08,20,05,28,15.40
2009,08,20,05,29,15.50
2009,08,20,05,30,15.50
2009,08,20,05,31,15.50
2009,08,20,05,32,15.50
2009,08,20,05,33,15.50
2009,08,20,05,34,15.50
2009,08,20,05,35,15.50
2009,08,20,05,36,15.60
2009,08,20,05,37,15.60
2009,08,20,05,38,15.70
2009,08,20,05,39,15.70
2009,08,20,05,40,15.80
2009,08,20,05,41,15.80
2009,08,20,05,42,15.80
2009,08,20,05,43,15.80
2009,08,20,05,44,15.80
2009,08,20,05,45,15.80
2009,08,20,05,46,15.80
2009,08,20,05,47,15.80
2009,08,20,05,48,15.80
2009,08,20,05,49,15.80
2009,08,20,05,50,15.70
2009,08,20,05,51,15.70
2009,08,20,05,52,15.70
2009,08,20,05,53,15.70
2009,08,20,05,54,15.70
2009,08,20,05,55,15.70
2009,08,20,05,56,15.70
2009,08,20,05,57,15.70
2009,08,20,05,58,15.60
2009,08,20,05,59,15.60
2009,08,20,06,00,15.60
2009,08,20,06,01,15.60
2009,08,20,06,02,15.50
2009,08,20,06,03,15.50
2009,08,20,06,04,15.50
2009,08,20,06,05,15.50
2009,08,20,06,06,15.60
2009,08,20,06,07,15.60
2009,08,20,06,08,15.60
2009,08,20,06,09,15.60
2009,08,20,06,10,15.60
2009,08,20,06,11,15.60
2009,08,20,06,12,15.60
2009,08,20,06,13,15.70
2009,08,20,06,14,15.70
2009,08,20,06,15,15.70
2009,08,20,06,16,15.70
2009,08,20,06,17,15.60
2009,08,20,06,18,15.60
2009,08,20,06,19,15.60
2009,08,20,06,20,15.60
2009,08,20,06,21,15.60
2009,08,20,06,22,15.60
2009,08,20,06,23,15.50
2009,08,20,06,24,15.50
2009,08,20,06,25,15.50
2009,08,20,06,26,15.60
2009,08,20,06,27,15.60
2009,08,20,06,28,15.50
2009,08,20,06,29,15.50
2009,08,20,06,30,15.50
2009,08,20,06,31,15.50
2009,08,20,06,32,15.40
2009,08,20,06,33,15.40
2009,08,20,06,34,15.40
2009,08,20,06,35,15.40
2009,08,20,06,36,15.40
2009,08,20,06,37,15.40
2009,08,20,06,38,15.40
2009,08,20,06,39,15.40
2009,08,20,06,40,15.40
2009,08,20,06,41,15.40
2009,08,20,06,42,15.40
2009,08,20,06,43,15.30
2009,08,20,06,44,15.30
2009,08,20,06,45,15.30
2009,08,20,06,46,15.40
2009,08,20,06,47,15.40
2009,08,20,06,48,15.40
2009,08,20,06,49,15.40
2009,08,20,06,50,15.40
2009,08,20,06,51,15.40
2009,08,20,06,52,15.40
2009,08,20,06,53,15.50
2009,08,20,06,54,15.60
2009,08,20,06,55,15.60
2009,08,20,06,56,15.60
2009,08,20,06,57,15.60
2009,08,20,06,58,15.60
2009,08,20,06,59,15.60
2009,08,20,07,00,15.70
2009,08,20,07,01,15.70
2009,08,20,07,02,15.70
2009,08,20,07,03,15.80
2009,08,20,07,04,15.80
2009,08,20,07,05,15.80
2009,08,20,07,06,15.90
2009,08,20,07,07,15.90
2009,08,20,07,08,15.90
2009,08,20,07,09,16.00
2009,08,20,07,10,16.10
2009,08,20,07,11,16.10
2009,08,20,07,12,16.10
2009,08,20,07,13,16.10
2009,08,20,07,14,16.10
2009,08,20,07,15,16.10
2009,08,20,07,16,16.10
2009,08,20,07,17,16.10
2009,08,20,07,18,16.10
2009,08,20,07,19,16.20
2009,08,20,07,20,16.20
2009,08,20,07,21,16.30
2009,08,20,07,22,16.30
2009,08,20,07,23,16.40
2009,08,20,07,24,16.40
2009,08,20,07,25,16.50
2009,08,20,07,26,16.50
2009,08,20,07,27,16.60
2009,08,20,07,28,16.60
2009,08,20,07,29,16.70
2009,08,20,07,30,16.80
2009,08,20,07,31,16.80
2009,08,20,07,32,16.80
2009,08,20,07,33,16.90
2009,08,20,07,34,16.90
2009,08,20,07,35,16.90
2009,08,20,07,36,17.00
2009,08,20,07,37,17.00
2009,08,20,07,38,17.10
2009,08,20,07,39,17.10
2009,08,20,07,40,17.20
2009,08,20,07,41,17.20
2009,08,20,07,42,17.30
2009,08,20,07,43,17.40
2009,08,20,07,44,17.50
2009,08,20,07,45,17.50
2009,08,20,07,46,17.60
2009,08,20,07,47,17.70
2009,08,20,07,48,17.70
2009,08,20,07,49,17.80
2009,08,20,07,50,17.90
2009,08,20,07,51,18.00
2009,08,20,07,52,18.00
2009,08,20,07,53,18.10
2009,08,20,07,54,18.20
2009,08,20,07,55,18.20
2009,08,20,07,56,18.30
2009,08,20,07,57,18.30
2009,08,20,07,58,18.40
2009,08,20,07,59,18.40
2009,08,20,08,00,18.40
2009,08,20,08,01,18.50
2009,08,20,08,02,18.50
2009,08,20,08,03,18.60
2009,08,20,08,04,18.60
2009,08,20,08,05,18.70
2009,08,20,08,06,18.80
2009,08,20,08,07,18.90
2009,08,20,08,08,19.00
2009,08,20,08,09,19.00
2009,08,20,08,10,19.10
2009,08,20,08,11,19.20
2009,08,20,08,12,19.30
2009,08,20,08,13,19.40
2009,08,20,08,14,19.50
2009,08,20,08,15,19.60
2009,08,20,08,16,19.80
2009,08,20,08,17,19.90
2009,08,20,08,18,19.90
2009,08,20,08,19,20.00
2009,08,20,08,20,20.00
2009,08,20,08,21,20.00
2009,08,20,08,22,20.10
2009,08,20,08,23,20.20
2009,08,20,08,24,20.20
2009,08,20,08,25,20.30
2009,08,20,08,26,20.40
2009,08,20,08,27,20.50
2009,08,20,08,28,20.60
2009,08,20,08,29,20.60
2009,08,20,08,30,20.70
2009,08,20,08,31,20.80
2009,08,20,08,32,20.80
2009,08,20,08,33,20.90
2009,08,20,08,34,21.00
2009,08,20,08,35,21.20
2009,08,20,08,36,21.30
2009,08,20,08,37,21.30
2009,08,20,08,38,21.40
2009,08,20,08,39,21.50
2009,08,20,08,40,21.60
2009,08,20,08,41,21.60
2009,08,20,08,42,21.60
2009,08,20,08,43,21.60
2009,08,20,08,44,21.60
2009,08,20,08,45,21.70
2009,08,20,08,46,21.70
2009,08,20,08,47,21.70
2009,08,20,08,48,21.70
2009,08,20,08,49,21.70
2009,08,20,08,50,21.70
2009,08,20,08,51,21.70
2009,08,20,08,52,21.60
2009,08,20,08,53,21.60
2009,08,20,08,54,21.60
2009,08,20,08,55,21.60
2009,08,20,08,56,21.60
2009,08,20,08,57,21.60
2009,08,20,08,58,21.60
2009,08,20,08,59,21.60
2009,08,20,09,00,21.70
2009,08,20,09,01,21.60
2009,08,20,09,02,21.60
2009,08,20,09,03,21.60
2009,08,20,09,04,21.60
2009,08,20,09,05,21.60
2009,08,20,09,06,21.70
2009,08,20,09,07,21.70
2009,08,20,09,08,21.80
2009,08,20,09,09,21.80
2009,08,20,09,10,21.90
2009,08,20,09,11,22.00
2009,08,20,09,12,22.10
2009,08,20,09,13,22.20
2009,08,20,09,14,22.30
2009,08,20,09,15,22.40
2009,08,20,09,16,22.60
2009,08,20,09,17,22.70
2009,08,20,09,18,22.80
2009,08,20,09,19,22.90
2009,08,20,09,20,23.00
2009,08,20,09,21,23.00
2009,08,20,09,22,23.00
2009,08,20,09,23,23.00
2009,08,20,09,24,23.00
2009,08,20,09,25,23.00
2009,08,20,09,26,23.10
2009,08,20,09,27,23.00
2009,08,20,09,28,23.10
2009,08,20,09,29,23.10
2009,08,20,09,30,23.20
2009,08,20,09,31,23.20
2009,08,20,09,32,23.10
2009,08,20,09,33,23.10
2009,08,20,09,34,23.10
2009,08,20,09,35,23.10
2009,08,20,09,36,23.10
2009,08,20,09,37,23.20
2009,08,20,09,38,23.20
2009,08,20,09,39,23.30
2009,08,20,09,40,23.30
2009,08,20,09,41,23.20
2009,08,20,09,42,23.30
2009,08,20,09,43,23.30
2009,08,20,09,44,23.40
2009,08,20,09,45,23.40
2009,08,20,09,46,23.40
2009,08,20,09,47,23.40
2009,08,20,09,48,23.40
2009,08,20,09,49,23.40
2009,08,20,09,50,23.40
2009,08,20,09,51,23.40
2009,08,20,09,52,23.30
2009,08,20,09,53,23.20
2009,08,20,09,54,23.20
2009,08,20,09,55,23.20
2009,08,20,09,56,23.20
2009,08,20,09,57,23.20
2009,08,20,09,58,23.30
2009,08,20,09,59,23.40
2009,08,20,10,00,23.50
2009,08,20,10,01,23.60
2009,08,20,10,02,23.60
2009,08,20,10,03,23.60
2009,08,20,10,04,23.60
2009,08,20,10,05,23.60
2009,08,20,10,06,23.60
2009,08,20,10,07,23.60
2009,08,20,10,08,23.60
2009,08,20,10,09,23.60
2009,08,20,10,10,23.60
2009,08,20,10,11,23.60
2009,08,20,10,12,23.60
2009,08,20,10,13,23.70
2009,08,20,10,14,23.70
2009,08,20,10,15,23.70
2009,08,20,10,16,23.70
2009,08,20,10,17,23.80
2009,08,20,10,18,23.90
2009,08,20,10,19,24.00
2009,08,20,10,20,24.00
2009,08,20,10,21,24.10
2009,08,20,10,22,24.20
2009,08,20,10,23,24.20
2009,08,20,10,24,24.20
2009,08,20,10,25,24.20
2009,08,20,10,26,24.20
2009,08,20,10,27,24.20
2009,08,20,10,28,24.30
2009,08,20,10,29,24.30
2009,08,20,10,30,24.30
2009,08,20,10,31,24.40
2009,08,20,10,32,24.50
2009,08,20,10,33,24.60
2009,08,20,10,34,24.80
2009,08,20,10,35,24.90
2009,08,20,10,36,24.90
2009,08,20,10,37,25.00
2009,08,20,10,38,24.90
2009,08,20,10,39,24.90
2009,08,20,10,40,24.90
2009,08,20,10,41,24.80
2009,08,20,10,42,24.80
2009,08,20,10,43,24.80
2009,08,20,10,44,24.80
2009,08,20,10,45,24.80
2009,08,20,10,46,24.70
2009,08,20,10,47,24.70
2009,08,20,10,48,24.70
2009,08,20,10,49,24.70
2009,08,20,10,50,24.70
2009,08,20,10,51,24.80
2009,08,20,10,52,24.80
2009,08,20,10,53,24.90
2009,08,20,10,54,24.90
2009,08,20,10,55,24.90
2009,08,20,10,56,24.80
2009,08,20,10,57,24.60
2009,08,20,10,58,24.50
2009,08,20,10,59,24.50
2009,08,20,11,00,24.50
2009,08,20,11,01,24.30
2009,08,20,11,02,24.20
2009,08,20,11,03,24.20
2009,08,20,11,04,24.20
2009,08,20,11,05,24.30
2009,08,20,11,06,24.30
2009,08,20,11,07,24.30
2009,08,20,11,08,24.40
2009,08,20,11,09,24.40
2009,08,20,11,10,24.50
2009,08,20,11,11,24.60
2009,08,20,11,12,24.70
2009,08,20,11,13,24.70
2009,08,20,11,14,24.60
2009,08,20,11,15,24.50
2009,08,20,11,16,24.50
2009,08,20,11,17,24.40
2009,08,20,11,18,24.20
2009,08,20,11,19,24.10
2009,08,20,11,20,24.00
2009,08,20,11,21,23.80
2009,08,20,11,22,23.80
2009,08,20,11,23,23.70
2009,08,20,11,24,23.70
2009,08,20,11,25,23.70
2009,08,20,11,26,23.60
2009,08,20,11,27,23.60
2009,08,20,11,28,23.50
2009,08,20,11,29,23.40
2009,08,20,11,30,23.30
2009,08,20,11,31,23.20
2009,08,20,11,32,23.20
2009,08,20,11,33,23.10
2009,08,20,11,34,23.10
2009,08,20,11,35,23.10
2009,08,20,11,36,23.10
2009,08,20,11,37,23.20
2009,08,20,11,38,23.20
2009,08,20,11,39,23.30
2009,08,20,11,40,23.30
2009,08,20,11,41,23.30
2009,08,20,11,42,23.40
2009,08,20,11,43,23.40
2009,08,20,11,44,23.40
2009,08,20,11,45,23.40
2009,08,20,11,46,23.20
2009,08,20,11,47,23.00
2009,08,20,11,48,22.80
2009,08,20,11,49,22.80
2009,08,20,11,50,22.60
2009,08,20,11,51,22.50
2009,08,20,11,52,22.30
2009,08,20,11,53,22.20
2009,08,20,11,54,22.10
2009,08,20,11,55,22.00
2009,08,20,11,56,21.90
2009,08,20,11,57,21.90
2009,08,20,11,58,22.00
2009,08,20,11,59,22.10
2009,08,20,12,00,22.10
2009,08,20,12,01,22.10
2009,08,20,12,02,22.10
2009,08,20,12,03,22.10
2009,08,20,12,04,22.20
2009,08,20,12,05,22.20
2009,08,20,12,06,22.30
2009,08,20,12,07,22.30
2009,08,20,12,08,22.30
2009,08,20,12,09,22.20
2009,08,20,12,10,22.20
2009,08,20,12,11,22.20
2009,08,20,12,12,22.10
2009,08,20,12,13,22.10
2009,08,20,12,14,22.10
2009,08,20,12,15,22.00
2009,08,20,12,16,21.90
2009,08,20,12,17,21.80
2009,08,20,12,18,21.70
2009,08,20,12,19,21.70
2009,08,20,12,20,21.70
2009,08,20,12,21,21.70
2009,08,20,12,22,21.60
2009,08,20,12,23,21.60
2009,08,20,12,24,21.60
2009,08,20,12,25,21.70
2009,08,20,12,26,21.80
2009,08,20,12,27,21.80
2009,08,20,12,28,21.80
2009,08,20,12,29,21.80
2009,08,20,12,30,21.80
2009,08,20,12,31,21.80
2009,08,20,12,32,21.90
2009,08,20,12,33,21.90
2009,08,20,12,34,21.90
2009,08,20,12,35,21.90
2009,08,20,12,36,21.80
2009,08,20,12,37,21.80
2009,08,20,12,38,21.80
2009,08,20,12,39,21.80
2009,08,20,12,40,21.80
2009,08,20,12,41,21.90
2009,08,20,12,42,22.00
2009,08,20,12,43,22.00
2009,08,20,12,44,22.00
2009,08,20,12,45,22.00
2009,08,20,12,46,22.10
2009,08,20,12,47,22.10
2009,08,20,12,48,22.10
2009,08,20,12,49,22.10
2009,08,20,12,50,22.10
2009,08,20,12,51,22.20
2009,08,20,12,52,22.20
2009,08,20,12,53,22.20
2009,08,20,12,54,22.30
2009,08,20,12,55,22.30
2009,08,20,12,56,22.40
2009,08,20,12,57,22.40
2009,08,20,12,58,22.40
2009,08,20,12,59,22.30
2009,08,20,13,00,22.30
2009,08,20,13,01,22.20
2009,08,20,13,02,22.30
2009,08,20,13,03,22.30
2009,08,20,13,04,22.30
2009,08,20,13,05,22.40
2009,08,20,13,06,22.50
2009,08,20,13,07,22.60
2009,08,20,13,08,22.60
2009,08,20,13,09,22.70
2009,08,20,13,10,22.80
2009,08,20,13,11,22.80
2009,08,20,13,12,22.80
2009,08,20,13,13,22.80
2009,08,20,13,14,22.80
2009,08,20,13,15,22.90
2009,08,20,13,16,23.00
2009,08,20,13,17,23.00
2009,08,20,13,18,23.10
2009,08,20,13,19,23.20
2009,08,20,13,20,23.30
2009,08,20,13,21,23.40
2009,08,20,13,22,23.50
2009,08,20,13,23,23.50
2009,08,20,13,24,23.50
2009,08,20,13,25,23.60
2009,08,20,13,26,23.70
2009,08,20,13,27,23.90
2009,08,20,13,28,24.00
2009,08,20,13,29,24.20
2009,08,20,13,30,24.30
2009,08,20,13,31,24.40
2009,08,20,13,32,24.50
2009,08,20,13,33,24.50
2009,08,20,13,34,24.60
2009,08,20,13,35,24.60
2009,08,20,13,36,24.60
2009,08,20,13,37,24.60
2009,08,20,13,38,24.70
2009,08,20,13,39,24.70
2009,08,20,13,40,24.70
2009,08,20,13,41,24.70
2009,08,20,13,42,24.70
2009,08,20,13,43,24.70
2009,08,20,13,44,24.80
2009,08,20,13,45,24.90
2009,08,20,13,46,24.90
2009,08,20,13,47,24.80
2009,08,20,13,48,24.80
2009,08,20,13,49,24.70
2009,08,20,13,50,24.70
2009,08,20,13,51,24.70
2009,08,20,13,52,24.70
2009,08,20,13,53,24.70
2009,08,20,13,54,24.70
2009,08,20,13,55,24.60
2009,08,20,13,56,24.60
2009,08,20,13,57,24.60
2009,08,20,13,58,24.60
2009,08,20,13,59,24.80
2009,08,20,14,00,24.80
2009,08,20,14,01,24.80
2009,08,20,14,02,24.90
2009,08,20,14,03,24.90
2009,08,20,14,04,24.90
2009,08,20,14,05,25.00
2009,08,20,14,06,25.00
2009,08,20,14,07,24.90
2009,08,20,14,08,24.90
2009,08,20,14,09,24.90
2009,08,20,14,10,25.00
2009,08,20,14,11,25.00
2009,08,20,14,12,25.10
2009,08,20,14,13,25.20
2009,08,20,14,14,25.30
2009,08,20,14,15,25.30
2009,08,20,14,16,25.30
2009,08,20,14,17,25.30
2009,08,20,14,18,25.30
2009,08,20,14,19,25.30
2009,08,20,14,20,25.20
2009,08,20,14,21,25.10
2009,08,20,14,22,25.10
2009,08,20,14,23,25.10
2009,08,20,14,24,25.10
2009,08,20,14,25,25.00
2009,08,20,14,26,25.00
2009,08,20,14,27,25.00
2009,08,20,14,28,25.10
2009,08,20,14,29,25.10
2009,08,20,14,30,25.00
2009,08,20,14,31,24.90
2009,08,20,14,32,24.90
2009,08,20,14,33,24.80
2009,08,20,14,34,24.90
2009,08,20,14,35,24.90
2009,08,20,14,36,24.90
2009,08,20,14,37,25.00
2009,08,20,14,38,25.10
2009,08,20,14,39,25.00
2009,08,20,14,40,25.00
2009,08,20,14,41,25.00
2009,08,20,14,42,25.00
2009,08,20,14,43,24.90
2009,08,20,14,44,24.90
2009,08,20,14,45,24.90
2009,08,20,14,46,24.90
2009,08,20,14,47,24.80
2009,08,20,14,48,24.70
2009,08,20,14,49,24.60
2009,08,20,14,50,24.50
2009,08,20,14,51,24.40
2009,08,20,14,52,24.50
2009,08,20,14,53,24.40
2009,08,20,14,54,24.40
2009,08,20,14,55,24.50
2009,08,20,14,56,24.60
2009,08,20,14,57,24.70
2009,08,20,14,58,24.70
2009,08,20,14,59,24.80
2009,08,20,15,00,24.80
2009,08,20,15,01,24.80
2009,08,20,15,02,24.80
2009,08,20,15,03,24.80
2009,08,20,15,04,24.80
2009,08,20,15,05,24.70
2009,08,20,15,06,24.70
2009,08,20,15,07,24.60
2009,08,20,15,08,24.70
2009,08,20,15,09,24.60
2009,08,20,15,10,24.60
2009,08,20,15,11,24.50
2009,08,20,15,12,24.40
2009,08,20,15,13,24.40
2009,08,20,15,14,24.30
2009,08,20,15,15,24.30
2009,08,20,15,16,24.20
2009,08,20,15,17,24.20
2009,08,20,15,18,24.20
2009,08,20,15,19,24.20
2009,08,20,15,20,24.30
2009,08,20,15,21,24.30
2009,08,20,15,22,24.40
2009,08,20,15,23,24.40
2009,08,20,15,24,24.30
2009,08,20,15,25,24.30
2009,08,20,15,26,24.30
2009,08,20,15,27,24.30
2009,08,20,15,28,24.30
2009,08,20,15,29,24.30
2009,08,20,15,30,24.30
2009,08,20,15,31,24.30
2009,08,20,15,32,24.20
2009,08,20,15,33,24.10
2009,08,20,15,34,24.10
2009,08,20,15,35,24.10
2009,08,20,15,36,24.00
2009,08,20,15,37,23.90
2009,08,20,15,38,23.90
2009,08,20,15,39,23.90
2009,08,20,15,40,23.80
2009,08,20,15,41,23.70
2009,08,20,15,42,23.80
2009,08,20,15,43,23.80
2009,08,20,15,44,23.90
2009,08,20,15,45,23.90
2009,08,20,15,46,24.00
2009,08,20,15,47,24.10
2009,08,20,15,48,24.20
2009,08,20,15,49,24.20
2009,08,20,15,50,24.30
2009,08,20,15,51,24.40
2009,08,20,15,52,24.50
2009,08,20,15,53,24.70
2009,08,20,15,54,24.80
2009,08,20,15,55,24.90
2009,08,20,15,56,25.00
2009,08,20,15,57,25.10
2009,08,20,15,58,25.20
2009,08,20,15,59,25.30
2009,08,20,16,00,25.40
2009,08,20,16,01,25.50
2009,08,20,16,02,25.60
2009,08,20,16,03,25.70
2009,08,20,16,04,25.90
2009,08,20,16,05,26.00
2009,08,20,16,06,26.10
2009,08,20,16,07,26.20
2009,08,20,16,08,26.30
2009,08,20,16,09,26.40
2009,08,20,16,10,26.40
2009,08,20,16,11,26.40
2009,08,20,16,12,26.20
2009,08,20,16,13,26.00
2009,08,20,16,14,25.90
2009,08,20,16,15,25.70
2009,08,20,16,16,25.40
2009,08,20,16,17,25.20
2009,08,20,16,18,24.90
2009,08,20,16,19,24.70
2009,08,20,16,20,24.40
2009,08,20,16,21,24.20
2009,08,20,16,22,24.00
2009,08,20,16,23,24.00
2009,08,20,16,24,23.90
2009,08,20,16,25,23.90
2009,08,20,16,26,24.00
2009,08,20,16,27,24.10
2009,08,20,16,28,24.10
2009,08,20,16,29,24.10
2009,08,20,16,30,24.10
2009,08,20,16,31,24.10
2009,08,20,16,32,24.10
2009,08,20,16,33,24.10
2009,08,20,16,34,23.90
2009,08,20,16,35,23.80
2009,08,20,16,36,23.70
2009,08,20,16,37,23.60
2009,08,20,16,38,23.60
2009,08,20,16,39,23.70
2009,08,20,16,40,23.80
2009,08,20,16,41,23.80
2009,08,20,16,42,24.00
2009,08,20,16,43,24.10
2009,08,20,16,44,24.20
2009,08,20,16,45,24.40
2009,08,20,16,46,24.50
2009,08,20,16,47,24.70
2009,08,20,16,48,24.90
2009,08,20,16,49,25.10
2009,08,20,16,50,25.20
2009,08,20,16,51,25.40
2009,08,20,16,52,25.40
2009,08,20,16,53,25.40
2009,08,20,16,54,25.50
2009,08,20,16,55,25.60
2009,08,20,16,56,25.60
2009,08,20,16,57,25.80
2009,08,20,16,58,25.90
2009,08,20,16,59,25.90
2009,08,20,17,00,26.00
2009,08,20,17,01,26.20
2009,08,20,17,02,26.20
2009,08,20,17,03,26.30
2009,08,20,17,04,26.30
2009,08,20,17,05,26.40
2009,08,20,17,06,26.50
2009,08,20,17,07,26.50
2009,08,20,17,08,26.60
2009,08,20,17,09,26.50
2009,08,20,17,10,26.40
2009,08,20,17,11,26.30
2009,08,20,17,12,26.20
2009,08,20,17,13,26.20
2009,08,20,17,14,26.10
2009,08,20,17,15,25.90
2009,08,20,17,16,25.90
2009,08,20,17,17,25.80
2009,08,20,17,18,25.80
2009,08,20,17,19,25.80